TimeEDT,TemperatureF,Dew PointF,Humidity,Sea Level PressureIn,VisibilityMPH,Wind Direction,Wind SpeedMPH,Gust SpeedMPH,PrecipitationIn,Events,Conditions,WindDirDegrees,DateUTC
12:14 AM,65.5,55.2,69,30.01,10.0,South,6.9,-,N/A,,Clear,170,2013-05-01 04:14:00
12:34 AM,65.3,55.0,69,30.01,10.0,South,5.8,-,N/A,,Clear,170,2013-05-01 04:34:00
12:53 AM,65.3,54.9,69,30.02,10.0,South,8.1,-,N/A,,Clear,170,2013-05-01 04:53:00
1:13 AM,64.8,55.0,71,30.02,10.0,SSE,8.1,-,N/A,,Clear,160,2013-05-01 05:13:00
1:33 AM,64.6,55.0,71,30.02,10.0,SSE,6.9,-,N/A,,Clear,160,2013-05-01 05:33:00
1:53 AM,64.0,54.9,72,30.03,10.0,South,5.8,-,N/A,,Clear,180,2013-05-01 05:53:00
2:13 AM,63.3,54.7,73,30.03,10.0,South,5.8,-,N/A,,Clear,170,2013-05-01 06:13:00
2:33 AM,63.3,54.7,73,30.03,10.0,South,4.6,-,N/A,,Clear,180,2013-05-01 06:33:00
2:53 AM,63.3,54.7,73,30.04,10.0,South,4.6,-,N/A,,Clear,180,2013-05-01 06:53:00
3:13 AM,63.1,54.7,74,30.04,10.0,South,4.6,-,N/A,,Clear,170,2013-05-01 07:13:00
3:34 AM,61.7,54.1,76,30.05,10.0,Calm,Calm,-,N/A,,Clear,0,2013-05-01 07:34:00
3:53 AM,61.3,54.5,78,30.06,10.0,SSE,3.5,-,N/A,,Clear,160,2013-05-01 07:53:00
4:14 AM,61.3,54.5,78,30.06,10.0,South,4.6,-,N/A,,Clear,170,2013-05-01 08:14:00
4:33 AM,61.3,54.1,77,30.06,10.0,South,4.6,-,N/A,,Clear,180,2013-05-01 08:33:00
4:53 AM,61.3,54.0,77,30.07,10.0,South,3.5,-,N/A,,Clear,180,2013-05-01 08:53:00
5:14 AM,60.6,53.6,78,30.07,10.0,South,3.5,-,N/A,,Clear,170,2013-05-01 09:14:00
5:33 AM,60.3,53.6,79,30.07,10.0,South,3.5,-,N/A,,Clear,170,2013-05-01 09:33:00
5:53 AM,59.9,53.4,79,30.08,10.0,South,4.6,-,N/A,,Clear,170,2013-05-01 09:53:00
6:13 AM,59.7,53.4,80,30.08,10.0,South,3.5,-,N/A,,Clear,170,2013-05-01 10:13:00
6:33 AM,59.7,53.4,80,30.09,10.0,South,5.8,-,N/A,,Clear,170,2013-05-01 10:33:00
6:54 AM,59.9,53.6,80,30.10,10.0,Calm,Calm,-,N/A,,Clear,0,2013-05-01 10:54:00
7:13 AM,60.1,53.8,80,30.11,10.0,South,4.6,-,N/A,,Clear,170,2013-05-01 11:13:00
7:33 AM,61.3,54.5,78,30.12,10.0,South,3.5,-,N/A,,Clear,170,2013-05-01 11:33:00
7:54 AM,62.2,54.3,75,30.13,10.0,South,4.6,-,N/A,,Clear,170,2013-05-01 11:54:00
8:13 AM,63.1,54.3,73,30.13,10.0,South,6.9,-,N/A,,Clear,170,2013-05-01 12:13:00
8:33 AM,64.6,54.7,70,30.14,10.0,South,6.9,-,N/A,,Clear,190,2013-05-01 12:33:00
8:53 AM,66.4,54.7,66,30.14,10.0,South,8.1,-,N/A,,Clear,190,2013-05-01 12:53:00
9:14 AM,68.4,54.7,62,30.14,10.0,SSW,9.2,-,N/A,,Clear,200,2013-05-01 13:14:00
9:33 AM,70.2,55.4,59,30.14,10.0,SSW,9.2,-,N/A,,Clear,200,2013-05-01 13:33:00
9:54 AM,71.8,55.8,57,30.14,10.0,South,8.1,-,N/A,,Clear,190,2013-05-01 13:54:00
10:13 AM,73.4,56.5,55,30.14,10.0,SSW,8.1,-,N/A,,Clear,200,2013-05-01 14:13:00
10:33 AM,74.3,56.7,54,30.15,7.0,South,4.6,-,N/A,,Clear,180,2013-05-01 14:33:00
10:54 AM,76.1,57.2,52,30.15,10.0,South,5.8,-,N/A,,Clear,170,2013-05-01 14:54:00
11:13 AM,77.2,57.4,50,30.15,10.0,South,6.9,-,N/A,,Clear,170,2013-05-01 15:13:00
11:33 AM,78.8,58.3,49,30.15,7.0,South,9.2,-,N/A,,Clear,180,2013-05-01 15:33:00
11:54 AM,79.3,57.6,47,30.15,10.0,SSE,6.9,-,N/A,,Clear,150,2013-05-01 15:54:00
12:13 PM,80.2,57.9,46,30.15,10.0,South,8.1,-,N/A,,Clear,180,2013-05-01 16:13:00
12:34 PM,80.8,57.2,44,30.15,10.0,SSE,4.6,-,N/A,,Clear,160,2013-05-01 16:34:00
12:54 PM,81.3,57.4,44,30.15,10.0,SSE,11.5,-,N/A,,Clear,160,2013-05-01 16:54:00
1:13 PM,81.5,56.8,43,30.15,10.0,SW,6.9,-,N/A,,Clear,220,2013-05-01 17:13:00
1:34 PM,82.4,57.0,42,30.15,10.0,SE,6.9,-,N/A,,Scattered Clouds,140,2013-05-01 17:34:00
1:54 PM,82.4,57.4,42,30.15,10.0,South,11.5,-,N/A,,Scattered Clouds,190,2013-05-01 17:54:00
2:13 PM,83.7,57.4,41,30.15,10.0,SSE,12.7,18.4,N/A,,Scattered Clouds,160,2013-05-01 18:13:00
2:34 PM,84.0,56.8,39,30.15,10.0,South,10.4,19.6,N/A,,Scattered Clouds,190,2013-05-01 18:34:00
2:53 PM,84.2,56.8,39,30.15,10.0,SSW,8.1,16.1,N/A,,Clear,210,2013-05-01 18:53:00
3:13 PM,84.2,56.8,39,30.15,10.0,SSE,8.1,17.3,N/A,,Scattered Clouds,160,2013-05-01 19:13:00
3:34 PM,83.8,57.6,41,30.15,10.0,SE,12.7,18.4,N/A,,Scattered Clouds,130,2013-05-01 19:34:00
3:53 PM,84.2,57.9,41,30.14,10.0,SE,16.1,23.0,N/A,,Scattered Clouds,140,2013-05-01 19:53:00
4:14 PM,84.2,56.7,39,30.14,10.0,South,8.1,18.4,N/A,,Scattered Clouds,170,2013-05-01 20:14:00
4:34 PM,84.0,54.7,36,30.14,10.0,SE,16.1,20.7,N/A,,Clear,140,2013-05-01 20:34:00
4:53 PM,83.5,54.7,37,30.14,10.0,SE,11.5,18.4,N/A,,Clear,140,2013-05-01 20:53:00
5:14 PM,84.2,54.0,35,30.15,10.0,SSE,11.5,16.1,N/A,,Clear,150,2013-05-01 21:14:00
5:34 PM,84.2,52.7,34,30.15,10.0,SSE,5.8,-,N/A,,Clear,160,2013-05-01 21:34:00
5:54 PM,83.5,51.6,33,30.15,10.0,South,13.8,21.9,N/A,,Clear,190,2013-05-01 21:54:00
6:13 PM,83.3,52.0,34,30.15,10.0,SE,12.7,16.1,N/A,,Clear,140,2013-05-01 22:13:00
6:33 PM,83.3,52.2,34,30.15,10.0,SSE,11.5,16.1,N/A,,Clear,160,2013-05-01 22:33:00
6:54 PM,82.4,52.7,36,30.15,10.0,SSE,9.2,18.4,N/A,,Clear,150,2013-05-01 22:54:00
7:13 PM,82.4,53.6,37,30.16,10.0,SE,12.7,17.3,N/A,,Clear,140,2013-05-01 23:13:00
7:33 PM,81.5,54.0,39,30.16,10.0,SSE,9.2,-,N/A,,Clear,150,2013-05-01 23:33:00
7:54 PM,80.6,55.2,42,30.16,10.0,SSE,9.2,-,N/A,,Clear,160,2013-05-01 23:54:00
8:13 PM,79.3,54.9,43,30.17,10.0,SSE,9.2,-,N/A,,Clear,150,2013-05-02 00:13:00
8:34 PM,78.1,54.7,44,30.17,10.0,SSE,6.9,-,N/A,,Clear,160,2013-05-02 00:34:00
8:54 PM,77.2,54.7,46,30.18,10.0,SSE,9.2,-,N/A,,Clear,150,2013-05-02 00:54:00
9:34 PM,75.7,54.5,48,30.19,10.0,SSE,6.9,-,N/A,,Clear,150,2013-05-02 01:34:00
9:54 PM,75.4,54.0,47,30.20,10.0,SSE,8.1,-,N/A,,Clear,150,2013-05-02 01:54:00
10:34 PM,73.8,53.6,49,30.20,10.0,SSE,6.9,-,N/A,,Clear,150,2013-05-02 02:34:00
10:54 PM,73.4,54.0,50,30.20,10.0,SSE,5.8,-,N/A,,Clear,160,2013-05-02 02:54:00
11:13 PM,72.5,53.6,51,30.20,10.0,SSE,5.8,-,N/A,,Clear,150,2013-05-02 03:13:00
11:34 PM,71.8,53.4,52,30.20,10.0,SSE,4.6,-,N/A,,Clear,150,2013-05-02 03:34:00
11:54 PM,70.9,53.6,54,30.21,10.0,SSE,4.6,-,N/A,,Clear,160,2013-05-02 03:54:00